Canadian, TX

10:15 PM CDT on October 20, 2019 (GMT -0500)
Hemphill County

Weather History for KHHF - September, 2019

Change the Weather History Date:

Tuesday, September 17, 2019

  Actual Average (KPPA) Record (KPPA)
Temperature  
Mean Temperature 82 °F -  
Max Temperature 94 °F 81 °F 99 °F (2015)
Min Temperature 71 °F 56 °F 39 °F (1965)
Cooling Degree Days 18    
Growing Degree Days 32 (Base 50)    
Moisture  
Dew Point 62 °F    
Average Humidity 53    
Maximum Humidity 76    
Minimum Humidity 32    
Precipitation  
Precipitation 0.00 in - - ()
Sea Level Pressure  
Sea Level Pressure 29.98 in    
Wind  
Wind Speed 15 mph (South)    
Max Wind Speed 25 mph    
Max Gust Speed 32 mph    
Visibility 10 miles    
Events      
Averages and records for this station are not official NWS values.
T = Trace of Precipitation, MM = Missing Value Source: NWS Daily Summary

Daily Weather History Graph

Daily Weather History Graph

Search for Another Location

Airport or City:

Astronomy

Sep. 17, 2019 Rise Set
Actual Time 7:25 AM CDT 7:46 PM CDT
Civil Twilight 6:59 AM CDT 8:11 PM CDT
Nautical Twilight 6:29 AM CDT 8:41 PM CDT
Astronomical Twilight 5:59 AM CDT 9:12 PM CDT
Moon 9:56 PM CDT (9/17) 10:26 AM CDT (9/17)
Length of Visible Light 13h 11m
Length of Day
12h 20m
Waning Gibbous, 89% of the Moon is Illuminated
Sep 17
Waning Gibbous
Sep 21
Last Quarter
Sep 28
New
Oct 5
First Quarter
Oct 13
Full

Hourly Weather History & Observations

Time (CDT) Temp. Heat Index Dew Point Humidity Pressure Visibility Wind Dir Wind Speed Gust Speed Precip Events Conditions
12:15 AM 77.4 °F - 63.5 °F 62% 30.02 in 10.0 mi South 12.7 mph 19.6 mph N/A   Clear
12:35 AM 76.8 °F - 63.5 °F 63% 30.02 in 10.0 mi South 13.8 mph - N/A   Clear
12:55 AM 76.3 °F - 63.5 °F 64% 30.02 in 10.0 mi South 12.7 mph 17.3 mph N/A   Clear
1:15 AM 76.1 °F - 63.7 °F 65% 30.02 in 10.0 mi South 12.7 mph - N/A   Clear
1:35 AM 75.2 °F - 63.7 °F 67% 30.02 in 10.0 mi South 10.4 mph - N/A   Clear
1:55 AM 75.2 °F - 63.9 °F 68% 30.02 in 10.0 mi South 11.5 mph 17.3 mph N/A   Clear
2:35 AM 75.2 °F - 64.4 °F 69% 30.02 in 10.0 mi SSE 11.5 mph - N/A   Clear
2:55 AM 75.2 °F - 64.6 °F 69% 30.02 in 10.0 mi SSE 11.5 mph - N/A   Clear
3:15 AM 73.8 °F - 63.9 °F 71% 30.02 in 10.0 mi South 9.2 mph - N/A   Clear
3:35 AM 73.9 °F - 63.9 °F 71% 30.01 in 10.0 mi South 10.4 mph - N/A   Clear
3:55 AM 73.8 °F - 63.9 °F 71% 30.01 in 10.0 mi South 11.5 mph 16.1 mph N/A   Clear
4:15 AM 73.8 °F - 63.9 °F 71% 30.00 in 10.0 mi South 13.8 mph 19.6 mph N/A   Clear
4:35 AM 73.4 °F - 63.9 °F 72% 30.01 in 10.0 mi South 12.7 mph 17.3 mph N/A   Clear
4:55 AM 73.4 °F - 63.9 °F 72% 30.01 in 10.0 mi South 12.7 mph 18.4 mph N/A   Clear
5:15 AM 72.9 °F - 63.9 °F 73% 30.01 in 10.0 mi South 12.7 mph 18.4 mph N/A   Clear
5:35 AM 72.7 °F - 63.7 °F 73% 30.01 in 10.0 mi South 11.5 mph - N/A   Clear
5:55 AM 72.5 °F - 63.9 °F 74% 30.01 in 10.0 mi South 11.5 mph - N/A   Clear
6:15 AM 72.5 °F - 64.0 °F 75% 30.01 in 10.0 mi South 15.0 mph 19.6 mph N/A   Clear
6:35 AM 72.5 °F - 63.7 °F 74% 30.01 in 10.0 mi South 13.8 mph 20.7 mph N/A   Clear
6:55 AM 72.0 °F - 63.7 °F 75% 30.01 in 10.0 mi South 13.8 mph 19.6 mph N/A   Clear
7:15 AM 72.0 °F - 63.7 °F 75% 30.01 in 10.0 mi South 15.0 mph 20.7 mph N/A   Clear
7:35 AM 71.8 °F - 63.7 °F 76% 30.01 in 10.0 mi South 13.8 mph 20.7 mph N/A   Clear
7:55 AM 72.5 °F - 63.9 °F 74% 30.02 in 10.0 mi South 15.0 mph 21.9 mph N/A   Clear
8:15 AM 72.7 °F - 63.7 °F 73% 30.02 in 10.0 mi South 15.0 mph 21.9 mph N/A   Clear
8:35 AM 73.6 °F - 63.9 °F 72% 30.02 in 10.0 mi South 20.7 mph 25.3 mph N/A   Clear
8:55 AM 75.2 °F - 63.5 °F 67% 30.02 in 10.0 mi South 19.6 mph 24.2 mph N/A   Clear
9:15 AM 77.5 °F - 63.5 °F 62% 30.02 in 10.0 mi South 19.6 mph 26.5 mph N/A   Clear
9:35 AM 79.0 °F - 63.7 °F 59% 30.02 in 10.0 mi South 18.4 mph 26.5 mph N/A   Clear
9:55 AM 80.8 °F 82.1 °F 63.1 °F 55% 30.02 in 10.0 mi SSW 23.0 mph 28.8 mph N/A   Clear
10:15 AM 82.0 °F 83.3 °F 63.5 °F 53% 30.02 in 10.0 mi South 21.9 mph 28.8 mph N/A   Clear
10:35 AM 84.0 °F 84.9 °F 63.1 °F 49% 30.02 in 10.0 mi South 24.2 mph - N/A   Clear
10:55 AM 85.1 °F 86.1 °F 63.1 °F 48% 30.03 in 10.0 mi South 25.3 mph 29.9 mph N/A   Clear
11:15 AM 86.0 °F 86.8 °F 63.1 °F 46% 30.03 in 10.0 mi SSW 23.0 mph 28.8 mph N/A   Clear
11:35 AM 87.8 °F 88.5 °F 62.8 °F 43% 30.02 in 10.0 mi SSW 19.6 mph 28.8 mph N/A   Clear
11:55 AM 88.9 °F 89.4 °F 62.2 °F 41% 30.02 in 10.0 mi South 18.4 mph 25.3 mph N/A   Clear
12:15 PM 90.5 °F 91.1 °F 62.1 °F 39% 30.01 in 10.0 mi South 19.6 mph 26.5 mph N/A   Clear
12:35 PM 91.0 °F 90.9 °F 60.6 °F 36% 30.01 in 10.0 mi South 16.1 mph 24.2 mph N/A   Clear
12:55 PM 91.4 °F 90.7 °F 59.5 °F 34% 30.00 in 10.0 mi SSW 19.6 mph 27.6 mph N/A   Clear
1:15 PM 91.9 °F 91.5 °F 59.9 °F 34% 29.99 in 10.0 mi SSW 21.9 mph 29.9 mph N/A   Clear
1:35 PM 92.3 °F 92.0 °F 60.4 °F 34% 29.99 in 10.0 mi SSW 18.4 mph 27.6 mph N/A   Clear
1:55 PM 93.2 °F 92.9 °F 60.3 °F 33% 29.98 in 10.0 mi SSW 16.1 mph 24.2 mph N/A   Clear
2:15 PM 92.1 °F 91.7 °F 60.3 °F 34% 29.97 in 10.0 mi South 16.1 mph 23.0 mph N/A   Clear
2:35 PM 91.9 °F 91.5 °F 59.9 °F 34% 29.96 in 10.0 mi South 16.1 mph 27.6 mph N/A   Scattered Clouds
2:55 PM 93.2 °F 92.9 °F 60.3 °F 33% 29.95 in 10.0 mi South 16.1 mph 26.5 mph N/A   Scattered Clouds
3:15 PM 92.3 °F 92.0 °F 60.1 °F 34% 29.95 in 10.0 mi SSE 17.3 mph 25.3 mph N/A   Scattered Clouds
3:35 PM 94.5 °F 94.4 °F 60.4 °F 32% 29.94 in 10.0 mi South 15.0 mph 27.6 mph N/A   Scattered Clouds
3:55 PM 93.6 °F 93.1 °F 59.4 °F 32% 29.93 in 10.0 mi South 16.1 mph 25.3 mph N/A   Scattered Clouds
4:15 PM 92.3 °F 91.6 °F 59.4 °F 33% 29.93 in 10.0 mi South 18.4 mph 32.2 mph N/A   Scattered Clouds
4:35 PM 92.1 °F 91.4 °F 59.0 °F 33% 29.92 in 10.0 mi South 20.7 mph 29.9 mph N/A   Scattered Clouds
4:55 PM 91.2 °F 90.2 °F 58.6 °F 33% 29.91 in 10.0 mi South 18.4 mph 25.3 mph N/A   Scattered Clouds
5:15 PM 92.3 °F 91.3 °F 58.5 °F 32% 29.91 in 10.0 mi South 15.0 mph 28.8 mph N/A   Scattered Clouds
5:35 PM 91.9 °F 90.8 °F 58.5 °F 32% 29.91 in 10.0 mi South 17.3 mph 24.2 mph N/A   Clear
5:55 PM 91.0 °F 90.0 °F 58.3 °F 33% 29.91 in 10.0 mi South 16.1 mph 24.2 mph N/A   Scattered Clouds
6:15 PM 91.2 °F 90.5 °F 59.0 °F 34% 29.91 in 10.0 mi South 17.3 mph 21.9 mph N/A   Scattered Clouds
6:35 PM 90.5 °F 89.8 °F 59.2 °F 35% 29.91 in 10.0 mi SSE 18.4 mph 25.3 mph N/A   Scattered Clouds
6:55 PM 89.6 °F 88.9 °F 59.2 °F 36% 29.91 in 10.0 mi South 16.1 mph 24.2 mph N/A   Clear
7:15 PM 88.3 °F 87.8 °F 59.9 °F 38% 29.91 in 10.0 mi SSE 17.3 mph 25.3 mph N/A   Clear
7:35 PM 87.3 °F 87.0 °F 60.1 °F 40% 29.91 in 10.0 mi SSE 13.8 mph 23.0 mph N/A   Clear
7:55 PM 86.0 °F 85.9 °F 60.4 °F 42% 29.91 in 10.0 mi SSE 12.7 mph 18.4 mph N/A   Clear
8:15 PM 85.1 °F 85.2 °F 60.8 °F 44% 29.92 in 10.0 mi SSE 12.7 mph - N/A   Clear
8:35 PM 84.2 °F 84.4 °F 60.4 °F 45% 29.93 in 10.0 mi SSE 13.8 mph - N/A   Clear
8:55 PM 83.3 °F 83.5 °F 60.8 °F 46% 29.93 in 10.0 mi SSE 10.4 mph - N/A   Clear
9:15 PM 81.9 °F 82.5 °F 60.8 °F 49% 29.94 in 10.0 mi SSE 11.5 mph - N/A   Clear
9:35 PM 81.1 °F 81.9 °F 60.8 °F 50% 29.94 in 10.0 mi SSE 11.5 mph 18.4 mph N/A   Clear
9:55 PM 80.8 °F 81.5 °F 60.8 °F 50% 29.95 in 10.0 mi SSE 12.7 mph 18.4 mph N/A   Clear
10:15 PM 80.2 °F 81.2 °F 61.2 °F 52% 29.95 in 10.0 mi SSE 15.0 mph 21.9 mph N/A   Clear
10:35 PM 80.2 °F 81.3 °F 61.7 °F 53% 29.95 in 10.0 mi SSE 17.3 mph 21.9 mph N/A   Clear
10:55 PM 80.2 °F 81.3 °F 61.9 °F 53% 29.95 in 10.0 mi SSE 17.3 mph 24.2 mph N/A   Clear
11:15 PM 79.9 °F - 62.1 °F 54% 29.95 in 10.0 mi South 15.0 mph 24.2 mph N/A   Clear
11:35 PM 79.2 °F - 61.9 °F 55% 29.95 in 10.0 mi South 15.0 mph - N/A   Clear
11:55 PM 78.8 °F - 62.1 °F 56% 29.95 in 10.0 mi South 16.1 mph 21.9 mph N/A   Clear